Year,Month,Day,Hour,Minute,Value (Times are PST for temperature in C)
2014,04,02,00,00,8.50
2014,04,02,00,01,8.50
2014,04,02,00,02,8.60
2014,04,02,00,03,8.50
2014,04,02,00,04,8.50
2014,04,02,00,05,8.50
2014,04,02,00,06,8.50
2014,04,02,00,07,8.50
2014,04,02,00,08,8.50
2014,04,02,00,09,8.50
2014,04,02,00,10,8.50
2014,04,02,00,11,8.50
2014,04,02,00,12,8.50
2014,04,02,00,13,8.50
2014,04,02,00,14,8.50
2014,04,02,00,15,8.50
2014,04,02,00,16,8.50
2014,04,02,00,17,8.50
2014,04,02,00,18,8.40
2014,04,02,00,19,8.40
2014,04,02,00,20,8.40
2014,04,02,00,21,8.40
2014,04,02,00,22,8.40
2014,04,02,00,23,8.40
2014,04,02,00,24,8.40
2014,04,02,00,25,8.30
2014,04,02,00,26,8.30
2014,04,02,00,27,8.30
2014,04,02,00,28,8.30
2014,04,02,00,29,8.20
2014,04,02,00,30,8.20
2014,04,02,00,31,8.20
2014,04,02,00,32,8.20
2014,04,02,00,33,8.20
2014,04,02,00,34,8.20
2014,04,02,00,35,8.20
2014,04,02,00,36,8.20
2014,04,02,00,37,8.20
2014,04,02,00,38,8.20
2014,04,02,00,39,8.20
2014,04,02,00,40,8.10
2014,04,02,00,41,8.10
2014,04,02,00,42,8.10
2014,04,02,00,43,8.10
2014,04,02,00,44,8.10
2014,04,02,00,45,8.10
2014,04,02,00,46,8.10
2014,04,02,00,47,8.00
2014,04,02,00,48,8.00
2014,04,02,00,49,8.00
2014,04,02,00,50,8.00
2014,04,02,00,51,8.00
2014,04,02,00,52,8.00
2014,04,02,00,53,8.00
2014,04,02,00,54,7.90
2014,04,02,00,55,7.90
2014,04,02,00,56,7.90
2014,04,02,00,57,7.90
2014,04,02,00,58,7.90
2014,04,02,00,59,7.90
2014,04,02,01,00,7.90
2014,04,02,01,01,7.90
2014,04,02,01,02,7.90
2014,04,02,01,03,7.90
2014,04,02,01,04,7.80
2014,04,02,01,05,7.80
2014,04,02,01,06,7.80
2014,04,02,01,07,7.80
2014,04,02,01,08,7.80
2014,04,02,01,09,7.80
2014,04,02,01,10,7.80
2014,04,02,01,11,7.80
2014,04,02,01,12,7.80
2014,04,02,01,13,7.80
2014,04,02,01,14,7.80
2014,04,02,01,15,7.80
2014,04,02,01,16,7.80
2014,04,02,01,17,7.70
2014,04,02,01,18,7.70
2014,04,02,01,19,7.70
2014,04,02,01,20,7.70
2014,04,02,01,21,7.60
2014,04,02,01,22,7.60
2014,04,02,01,23,7.60
2014,04,02,01,24,7.60
2014,04,02,01,25,7.60
2014,04,02,01,26,7.60
2014,04,02,01,27,7.60
2014,04,02,01,28,7.60
2014,04,02,01,29,7.60
2014,04,02,01,30,7.60
2014,04,02,01,31,7.60
2014,04,02,01,32,7.60
2014,04,02,01,33,7.60
2014,04,02,01,34,7.60
2014,04,02,01,35,7.60
2014,04,02,01,36,7.60
2014,04,02,01,37,7.60
2014,04,02,01,38,7.50
2014,04,02,01,39,7.50
2014,04,02,01,40,7.50
2014,04,02,01,41,7.50
2014,04,02,01,42,7.50
2014,04,02,01,43,7.50
2014,04,02,01,44,7.50
2014,04,02,01,45,7.50
2014,04,02,01,46,7.40
2014,04,02,01,47,7.40
2014,04,02,01,48,7.40
2014,04,02,01,49,7.40
2014,04,02,01,50,7.40
2014,04,02,01,51,7.40
2014,04,02,01,52,7.40
2014,04,02,01,53,7.30
2014,04,02,01,54,7.30
2014,04,02,01,55,7.30
2014,04,02,01,56,7.30
2014,04,02,01,57,7.30
2014,04,02,01,58,7.30
2014,04,02,01,59,7.30
2014,04,02,02,00,7.30
2014,04,02,02,01,7.30
2014,04,02,02,02,7.30
2014,04,02,02,03,7.30
2014,04,02,02,04,7.30
2014,04,02,02,05,7.30
2014,04,02,02,06,7.30
2014,04,02,02,07,7.30
2014,04,02,02,08,7.30
2014,04,02,02,09,7.20
2014,04,02,02,10,7.20
2014,04,02,02,11,7.20
2014,04,02,02,12,7.20
2014,04,02,02,13,7.20
2014,04,02,02,14,7.20
2014,04,02,02,15,7.20
2014,04,02,02,16,7.20
2014,04,02,02,17,7.20
2014,04,02,02,18,7.20
2014,04,02,02,19,7.20
2014,04,02,02,20,7.20
2014,04,02,02,21,7.10
2014,04,02,02,22,7.10
2014,04,02,02,23,7.10
2014,04,02,02,24,7.10
2014,04,02,02,25,7.10
2014,04,02,02,26,7.10
2014,04,02,02,27,7.00
2014,04,02,02,28,7.00
2014,04,02,02,29,7.00
2014,04,02,02,30,7.00
2014,04,02,02,31,7.00
2014,04,02,02,32,7.00
2014,04,02,02,33,7.00
2014,04,02,02,34,7.00
2014,04,02,02,35,7.00
2014,04,02,02,36,7.00
2014,04,02,02,37,7.00
2014,04,02,02,38,7.00
2014,04,02,02,39,7.00
2014,04,02,02,40,7.00
2014,04,02,02,41,6.90
2014,04,02,02,42,6.90
2014,04,02,02,43,6.90
2014,04,02,02,44,6.90
2014,04,02,02,45,6.90
2014,04,02,02,46,6.90
2014,04,02,02,47,6.80
2014,04,02,02,48,6.80
2014,04,02,02,49,6.80
2014,04,02,02,50,6.80
2014,04,02,02,51,6.80
2014,04,02,02,52,6.80
2014,04,02,02,53,6.80
2014,04,02,02,54,6.80
2014,04,02,02,55,6.70
2014,04,02,02,56,6.70
2014,04,02,02,57,6.70
2014,04,02,02,58,6.70
2014,04,02,02,59,6.70
2014,04,02,03,00,6.70
2014,04,02,03,01,6.70
2014,04,02,03,02,6.70
2014,04,02,03,03,6.60
2014,04,02,03,04,6.60
2014,04,02,03,05,6.60
2014,04,02,03,06,6.60
2014,04,02,03,07,6.60
2014,04,02,03,08,6.60
2014,04,02,03,09,6.60
2014,04,02,03,10,6.60
2014,04,02,03,11,6.70
2014,04,02,03,12,6.70
2014,04,02,03,13,6.70
2014,04,02,03,14,6.70
2014,04,02,03,15,6.70
2014,04,02,03,16,6.70
2014,04,02,03,17,6.70
2014,04,02,03,18,6.70
2014,04,02,03,19,6.70
2014,04,02,03,20,6.70
2014,04,02,03,21,6.70
2014,04,02,03,22,6.70
2014,04,02,03,23,6.60
2014,04,02,03,24,6.60
2014,04,02,03,25,6.60
2014,04,02,03,26,6.60
2014,04,02,03,27,6.60
2014,04,02,03,28,6.60
2014,04,02,03,29,6.60
2014,04,02,03,30,6.60
2014,04,02,03,31,6.60
2014,04,02,03,32,6.60
2014,04,02,03,33,6.50
2014,04,02,03,34,6.40
2014,04,02,03,35,6.40
2014,04,02,03,36,6.40
2014,04,02,03,37,6.40
2014,04,02,03,38,6.40
2014,04,02,03,39,6.40
2014,04,02,03,40,6.50
2014,04,02,03,41,6.60
2014,04,02,03,42,6.60
2014,04,02,03,43,6.60
2014,04,02,03,44,6.60
2014,04,02,03,45,6.60
2014,04,02,03,46,6.60
2014,04,02,03,47,6.50
2014,04,02,03,48,6.40
2014,04,02,03,49,6.40
2014,04,02,03,50,6.40
2014,04,02,03,51,6.40
2014,04,02,03,52,6.40
2014,04,02,03,53,6.40
2014,04,02,03,54,6.40
2014,04,02,03,55,6.40
2014,04,02,03,56,6.40
2014,04,02,03,57,6.40
2014,04,02,03,58,6.40
2014,04,02,03,59,6.40
2014,04,02,04,00,6.40
2014,04,02,04,01,6.30
2014,04,02,04,02,6.30
2014,04,02,04,03,6.30
2014,04,02,04,04,6.30
2014,04,02,04,05,6.30
2014,04,02,04,06,6.30
2014,04,02,04,07,6.20
2014,04,02,04,08,6.20
2014,04,02,04,09,6.20
2014,04,02,04,10,6.20
2014,04,02,04,11,6.20
2014,04,02,04,12,6.20
2014,04,02,04,13,6.20
2014,04,02,04,14,6.20
2014,04,02,04,15,6.20
2014,04,02,04,16,6.20
2014,04,02,04,17,6.10
2014,04,02,04,18,6.00
2014,04,02,04,19,6.00
2014,04,02,04,20,5.90
2014,04,02,04,21,5.80
2014,04,02,04,22,5.80
2014,04,02,04,23,5.70
2014,04,02,04,24,5.70
2014,04,02,04,25,5.70
2014,04,02,04,26,5.70
2014,04,02,04,27,5.70
2014,04,02,04,28,5.70
2014,04,02,04,29,5.60
2014,04,02,04,30,5.50
2014,04,02,04,31,5.50
2014,04,02,04,32,5.40
2014,04,02,04,33,5.30
2014,04,02,04,34,5.30
2014,04,02,04,35,5.30
2014,04,02,04,36,5.30
2014,04,02,04,37,5.20
2014,04,02,04,38,5.20
2014,04,02,04,39,5.20
2014,04,02,04,40,5.10
2014,04,02,04,41,5.10
2014,04,02,04,42,5.10
2014,04,02,04,43,5.10
2014,04,02,04,44,5.10
2014,04,02,04,45,5.20
2014,04,02,04,46,5.20
2014,04,02,04,47,5.20
2014,04,02,04,48,5.20
2014,04,02,04,49,5.20
2014,04,02,04,50,5.10
2014,04,02,04,51,5.10
2014,04,02,04,52,5.10
2014,04,02,04,53,5.10
2014,04,02,04,54,5.10
2014,04,02,04,55,5.10
2014,04,02,04,56,5.10
2014,04,02,04,57,5.10
2014,04,02,04,58,5.00
2014,04,02,04,59,4.90
2014,04,02,05,00,4.90
2014,04,02,05,01,4.90
2014,04,02,05,02,4.80
2014,04,02,05,03,4.80
2014,04,02,05,04,4.70
2014,04,02,05,05,4.70
2014,04,02,05,06,4.60
2014,04,02,05,07,4.60
2014,04,02,05,08,4.60
2014,04,02,05,09,4.60
2014,04,02,05,10,4.60
2014,04,02,05,11,4.60
2014,04,02,05,12,4.60
2014,04,02,05,13,4.60
2014,04,02,05,14,4.50
2014,04,02,05,15,4.50
2014,04,02,05,16,4.50
2014,04,02,05,17,4.40
2014,04,02,05,18,4.40
2014,04,02,05,19,4.40
2014,04,02,05,20,4.30
2014,04,02,05,21,4.30
2014,04,02,05,22,4.20
2014,04,02,05,23,4.20
2014,04,02,05,24,4.20
2014,04,02,05,25,4.20
2014,04,02,05,26,4.20
2014,04,02,05,27,4.20
2014,04,02,05,28,4.20
2014,04,02,05,29,4.20
2014,04,02,05,30,4.20
2014,04,02,05,31,4.20
2014,04,02,05,32,4.20
2014,04,02,05,33,4.20
2014,04,02,05,34,4.20
2014,04,02,05,35,4.20
2014,04,02,05,36,4.20
2014,04,02,05,37,4.20
2014,04,02,05,38,4.20
2014,04,02,05,39,4.20
2014,04,02,05,40,4.20
2014,04,02,05,41,4.20
2014,04,02,05,42,4.20
2014,04,02,05,43,4.20
2014,04,02,05,44,4.20
2014,04,02,05,45,4.20
2014,04,02,05,46,4.20
2014,04,02,05,47,4.20
2014,04,02,05,48,4.20
2014,04,02,05,49,4.20
2014,04,02,05,50,4.20
2014,04,02,05,51,4.20
2014,04,02,05,52,4.20
2014,04,02,05,53,4.30
2014,04,02,05,54,4.30
2014,04,02,05,55,4.30
2014,04,02,05,56,4.30
2014,04,02,05,57,4.40
2014,04,02,05,58,4.40
2014,04,02,05,59,4.40
2014,04,02,06,00,4.30
2014,04,02,06,01,4.30
2014,04,02,06,02,4.30
2014,04,02,06,03,4.20
2014,04,02,06,04,4.20
2014,04,02,06,05,4.20
2014,04,02,06,06,4.20
2014,04,02,06,07,4.20
2014,04,02,06,08,4.20
2014,04,02,06,09,4.20
2014,04,02,06,10,4.10
2014,04,02,06,11,4.10
2014,04,02,06,12,4.10
2014,04,02,06,13,4.00
2014,04,02,06,14,4.00
2014,04,02,06,15,4.00
2014,04,02,06,16,3.90
2014,04,02,06,17,3.90
2014,04,02,06,18,3.90
2014,04,02,06,19,3.90
2014,04,02,06,20,3.90
2014,04,02,06,21,3.90
2014,04,02,06,22,3.80
2014,04,02,06,23,3.80
2014,04,02,06,24,3.80
2014,04,02,06,25,3.80
2014,04,02,06,26,3.80
2014,04,02,06,27,3.80
2014,04,02,06,28,3.70
2014,04,02,06,29,3.70
2014,04,02,06,30,3.70
2014,04,02,06,31,3.70
2014,04,02,06,32,3.70
2014,04,02,06,33,3.70
2014,04,02,06,34,3.70
2014,04,02,06,35,3.70
2014,04,02,06,36,3.70
2014,04,02,06,37,3.70
2014,04,02,06,38,3.70
2014,04,02,06,39,3.70
2014,04,02,06,40,3.70
2014,04,02,06,41,3.70
2014,04,02,06,42,3.80
2014,04,02,06,43,3.80
2014,04,02,06,44,3.80
2014,04,02,06,45,3.80
2014,04,02,06,46,3.80
2014,04,02,06,47,3.90
2014,04,02,06,48,3.90
2014,04,02,06,49,3.90
2014,04,02,06,50,3.90
2014,04,02,06,51,3.90
2014,04,02,06,52,3.90
2014,04,02,06,53,3.90
2014,04,02,06,54,3.80
2014,04,02,06,55,3.80
2014,04,02,06,56,3.80
2014,04,02,06,57,3.80
2014,04,02,06,58,3.80
2014,04,02,06,59,3.80
2014,04,02,07,00,3.80
2014,04,02,07,01,3.80
2014,04,02,07,02,3.70
2014,04,02,07,03,3.70
2014,04,02,07,04,3.80
2014,04,02,07,05,3.80
2014,04,02,07,06,3.80
2014,04,02,07,07,3.80
2014,04,02,07,08,3.80
2014,04,02,07,09,3.80
2014,04,02,07,10,3.80
2014,04,02,07,11,3.80
2014,04,02,07,12,3.80
2014,04,02,07,13,3.80
2014,04,02,07,14,3.80
2014,04,02,07,15,3.80
2014,04,02,07,16,3.80
2014,04,02,07,17,3.80
2014,04,02,07,18,3.90
2014,04,02,07,19,3.90
2014,04,02,07,20,3.90
2014,04,02,07,21,4.00
2014,04,02,07,22,4.00
2014,04,02,07,23,4.00
2014,04,02,07,24,4.00
2014,04,02,07,25,4.00
2014,04,02,07,26,4.10
2014,04,02,07,27,4.10
2014,04,02,07,28,4.10
2014,04,02,07,29,4.10
2014,04,02,07,30,4.20
2014,04,02,07,31,4.20
2014,04,02,07,32,4.20
2014,04,02,07,33,4.20
2014,04,02,07,34,4.20
2014,04,02,07,35,4.30
2014,04,02,07,36,4.30
2014,04,02,07,37,4.40
2014,04,02,07,38,4.40
2014,04,02,07,39,4.40
2014,04,02,07,40,4.50
2014,04,02,07,41,4.60
2014,04,02,07,42,4.70
2014,04,02,07,43,4.80
2014,04,02,07,44,4.80
2014,04,02,07,45,4.80
2014,04,02,07,46,4.80
2014,04,02,07,47,4.80
2014,04,02,07,48,4.80
2014,04,02,07,49,4.80
2014,04,02,07,50,4.80
2014,04,02,07,51,4.80
2014,04,02,07,52,4.80
2014,04,02,07,53,4.80
2014,04,02,07,54,4.80
2014,04,02,07,55,4.80
2014,04,02,07,56,4.80
2014,04,02,07,57,4.80
2014,04,02,07,58,4.80
2014,04,02,07,59,4.90
2014,04,02,08,00,4.90
2014,04,02,08,01,4.90
2014,04,02,08,02,4.90
2014,04,02,08,03,4.90
2014,04,02,08,04,4.90
2014,04,02,08,05,4.90
2014,04,02,08,06,5.00
2014,04,02,08,07,5.10
2014,04,02,08,08,5.10
2014,04,02,08,09,5.10
2014,04,02,08,10,5.10
2014,04,02,08,11,5.10
2014,04,02,08,12,5.10
2014,04,02,08,13,5.10
2014,04,02,08,14,5.10
2014,04,02,08,15,5.10
2014,04,02,08,16,5.20
2014,04,02,08,17,5.20
2014,04,02,08,18,5.20
2014,04,02,08,19,5.30
2014,04,02,08,20,5.30
2014,04,02,08,21,5.30
2014,04,02,08,22,5.30
2014,04,02,08,23,5.30
2014,04,02,08,24,5.30
2014,04,02,08,25,5.40
2014,04,02,08,26,5.40
2014,04,02,08,27,5.50
2014,04,02,08,28,5.60
2014,04,02,08,29,5.70
2014,04,02,08,30,5.80
2014,04,02,08,31,5.90
2014,04,02,08,32,5.90
2014,04,02,08,33,6.00
2014,04,02,08,34,6.00
2014,04,02,08,35,6.10
2014,04,02,08,36,6.10
2014,04,02,08,37,6.10
2014,04,02,08,38,6.20
2014,04,02,08,39,6.20
2014,04,02,08,40,6.20
2014,04,02,08,41,6.20
2014,04,02,08,42,6.30
2014,04,02,08,43,6.30
2014,04,02,08,44,6.40
2014,04,02,08,45,6.50
2014,04,02,08,46,6.60
2014,04,02,08,47,6.60
2014,04,02,08,48,6.70
2014,04,02,08,49,6.80
2014,04,02,08,50,6.90
2014,04,02,08,51,7.00
2014,04,02,08,52,7.10
2014,04,02,08,53,7.30
2014,04,02,08,54,7.50
2014,04,02,08,55,7.70
2014,04,02,08,56,7.90
2014,04,02,08,57,8.10
2014,04,02,08,58,8.30
2014,04,02,08,59,8.50
2014,04,02,09,00,8.70
2014,04,02,09,01,8.80
2014,04,02,09,02,8.90
2014,04,02,09,03,8.80
2014,04,02,09,04,8.70
2014,04,02,09,05,8.70
2014,04,02,09,06,8.70
2014,04,02,09,07,8.70
2014,04,02,09,08,8.70
2014,04,02,09,09,8.70
2014,04,02,09,10,8.70
2014,04,02,09,11,8.70
2014,04,02,09,12,8.70
2014,04,02,09,13,8.70
2014,04,02,09,14,8.70
2014,04,02,09,15,8.80
2014,04,02,09,16,8.80
2014,04,02,09,17,8.90
2014,04,02,09,18,8.90
2014,04,02,09,19,9.00
2014,04,02,09,20,9.10
2014,04,02,09,21,9.10
2014,04,02,09,22,9.10
2014,04,02,09,23,9.10
2014,04,02,09,24,9.20
2014,04,02,09,25,9.20
2014,04,02,09,26,9.20
2014,04,02,09,27,9.20
2014,04,02,09,28,9.30
2014,04,02,09,29,9.30
2014,04,02,09,30,9.40
2014,04,02,09,31,9.40
2014,04,02,09,32,9.40
2014,04,02,09,33,9.40
2014,04,02,09,34,9.50
2014,04,02,09,35,9.50
2014,04,02,09,36,9.60
2014,04,02,09,37,9.60
2014,04,02,09,38,9.60
2014,04,02,09,39,9.70
2014,04,02,09,40,9.70
2014,04,02,09,41,9.70
2014,04,02,09,42,9.70
2014,04,02,09,43,9.70
2014,04,02,09,44,9.70
2014,04,02,09,45,9.70
2014,04,02,09,46,9.70
2014,04,02,09,47,9.70
2014,04,02,09,48,9.70
2014,04,02,09,49,9.70
2014,04,02,09,50,9.70
2014,04,02,09,51,9.70
2014,04,02,09,52,9.70
2014,04,02,09,53,9.70
2014,04,02,09,54,9.80
2014,04,02,09,55,9.80
2014,04,02,09,56,9.80
2014,04,02,09,57,9.90
2014,04,02,09,58,9.90
2014,04,02,09,59,10.00
2014,04,02,10,00,10.10
2014,04,02,10,01,10.10
2014,04,02,10,02,10.10
2014,04,02,10,03,10.10
2014,04,02,10,04,10.10
2014,04,02,10,05,10.00
2014,04,02,10,06,9.90
2014,04,02,10,07,9.90
2014,04,02,10,08,9.90
2014,04,02,10,09,9.80
2014,04,02,10,10,9.80
2014,04,02,10,11,9.80
2014,04,02,10,12,9.90
2014,04,02,10,13,9.90
2014,04,02,10,14,10.00
2014,04,02,10,15,10.10
2014,04,02,10,16,10.10
2014,04,02,10,17,10.10
2014,04,02,10,18,10.10
2014,04,02,10,19,10.10
2014,04,02,10,20,10.10
2014,04,02,10,21,10.10
2014,04,02,10,22,10.10
2014,04,02,10,23,10.00
2014,04,02,10,24,9.90
2014,04,02,10,25,10.00
2014,04,02,10,26,10.10
2014,04,02,10,27,10.10
2014,04,02,10,28,10.10
2014,04,02,10,29,10.10
2014,04,02,10,30,10.10
2014,04,02,10,31,10.20
2014,04,02,10,32,10.20
2014,04,02,10,33,10.20
2014,04,02,10,34,10.10
2014,04,02,10,35,10.10
2014,04,02,10,36,9.90
2014,04,02,10,37,9.90
2014,04,02,10,38,9.90
2014,04,02,10,39,10.00
2014,04,02,10,40,10.10
2014,04,02,10,41,10.10
2014,04,02,10,42,10.10
2014,04,02,10,43,10.30
2014,04,02,10,44,10.40
2014,04,02,10,45,10.40
2014,04,02,10,46,10.30
2014,04,02,10,47,10.20
2014,04,02,10,48,10.10
2014,04,02,10,49,10.10
2014,04,02,10,50,10.10
2014,04,02,10,51,10.20
2014,04,02,10,52,10.30
2014,04,02,10,53,10.40
2014,04,02,10,54,10.60
2014,04,02,10,55,10.60
2014,04,02,10,56,10.70
2014,04,02,10,57,10.80
2014,04,02,10,58,10.90
2014,04,02,10,59,11.00
2014,04,02,11,00,10.90
2014,04,02,11,01,10.80
2014,04,02,11,02,10.70
2014,04,02,11,03,10.60
2014,04,02,11,04,10.60
2014,04,02,11,05,10.40
2014,04,02,11,06,10.30
2014,04,02,11,07,10.20
2014,04,02,11,08,10.30
2014,04,02,11,09,10.30
2014,04,02,11,10,10.20
2014,04,02,11,11,10.30
2014,04,02,11,12,10.30
2014,04,02,11,13,10.20
2014,04,02,11,14,10.10
2014,04,02,11,15,10.30
2014,04,02,11,16,10.40
2014,04,02,11,17,10.40
2014,04,02,11,18,10.40
2014,04,02,11,19,10.30
2014,04,02,11,20,10.20
2014,04,02,11,21,10.20
2014,04,02,11,22,10.20
2014,04,02,11,23,10.30
2014,04,02,11,24,10.40
2014,04,02,11,25,10.40
2014,04,02,11,26,10.20
2014,04,02,11,27,10.00
2014,04,02,11,28,9.90
2014,04,02,11,29,9.80
2014,04,02,11,30,9.80
2014,04,02,11,31,9.90
2014,04,02,11,32,10.00
2014,04,02,11,33,10.20
2014,04,02,11,34,10.30
2014,04,02,11,35,10.40
2014,04,02,11,36,10.40
2014,04,02,11,37,10.30
2014,04,02,11,38,10.20
2014,04,02,11,39,10.20
2014,04,02,11,40,10.10
2014,04,02,11,41,10.00
2014,04,02,11,42,9.90
2014,04,02,11,43,9.90
2014,04,02,11,44,9.90
2014,04,02,11,45,9.90
2014,04,02,11,46,9.80
2014,04,02,11,47,9.80
2014,04,02,11,48,9.90
2014,04,02,11,49,9.90
2014,04,02,11,50,9.90
2014,04,02,11,51,9.90
2014,04,02,11,52,9.90
2014,04,02,11,53,9.90
2014,04,02,11,54,10.00
2014,04,02,11,55,10.10
2014,04,02,11,56,10.10
2014,04,02,11,57,10.20
2014,04,02,11,58,10.20
2014,04,02,11,59,10.00
2014,04,02,12,00,9.80
2014,04,02,12,01,9.80
2014,04,02,12,02,9.70
2014,04,02,12,03,9.70
2014,04,02,12,04,9.70
2014,04,02,12,05,9.60
2014,04,02,12,06,9.60
2014,04,02,12,07,9.70
2014,04,02,12,08,9.70
2014,04,02,12,09,9.80
2014,04,02,12,10,9.90
2014,04,02,12,11,10.00
2014,04,02,12,12,10.10
2014,04,02,12,13,10.20
2014,04,02,12,14,10.10
2014,04,02,12,15,10.10
2014,04,02,12,16,10.00
2014,04,02,12,17,10.00
2014,04,02,12,18,9.90
2014,04,02,12,19,9.90
2014,04,02,12,20,10.00
2014,04,02,12,21,9.90
2014,04,02,12,22,9.90
2014,04,02,12,23,9.90
2014,04,02,12,24,10.00
2014,04,02,12,25,10.10
2014,04,02,12,26,10.30
2014,04,02,12,27,10.40
2014,04,02,12,28,10.40
2014,04,02,12,29,10.40
2014,04,02,12,30,10.60
2014,04,02,12,31,10.60
2014,04,02,12,32,10.30
2014,04,02,12,33,10.20
2014,04,02,12,34,10.00
2014,04,02,12,35,9.90
2014,04,02,12,36,9.90
2014,04,02,12,37,9.90
2014,04,02,12,38,9.90
2014,04,02,12,39,9.70
2014,04,02,12,40,9.70
2014,04,02,12,41,9.70
2014,04,02,12,42,9.70
2014,04,02,12,43,9.80
2014,04,02,12,44,9.90
2014,04,02,12,45,9.90
2014,04,02,12,46,9.90
2014,04,02,12,47,10.00
2014,04,02,12,48,10.10
2014,04,02,12,49,10.10
2014,04,02,12,50,10.20
2014,04,02,12,51,10.20
2014,04,02,12,52,10.20
2014,04,02,12,53,10.20
2014,04,02,12,54,10.10
2014,04,02,12,55,10.10
2014,04,02,12,56,10.00
2014,04,02,12,57,9.90
2014,04,02,12,58,9.90
2014,04,02,12,59,9.90
2014,04,02,13,00,9.90
2014,04,02,13,01,9.90
2014,04,02,13,02,9.80
2014,04,02,13,03,9.80
2014,04,02,13,04,9.90
2014,04,02,13,05,9.90
2014,04,02,13,06,9.90
2014,04,02,13,07,9.90
2014,04,02,13,08,9.80
2014,04,02,13,09,9.80
2014,04,02,13,10,9.90
2014,04,02,13,11,10.00
2014,04,02,13,12,10.10
2014,04,02,13,13,10.20
2014,04,02,13,14,10.40
2014,04,02,13,15,10.40
2014,04,02,13,16,10.40
2014,04,02,13,17,10.40
2014,04,02,13,18,10.50
2014,04,02,13,19,10.60
2014,04,02,13,20,10.50
2014,04,02,13,21,10.40
2014,04,02,13,22,10.40
2014,04,02,13,23,10.20
2014,04,02,13,24,10.20
2014,04,02,13,25,10.40
2014,04,02,13,26,10.40
2014,04,02,13,27,10.30
2014,04,02,13,28,10.20
2014,04,02,13,29,10.10
2014,04,02,13,30,10.00
2014,04,02,13,31,9.90
2014,04,02,13,32,10.00
2014,04,02,13,33,10.10
2014,04,02,13,34,10.10
2014,04,02,13,35,10.20
2014,04,02,13,36,10.20
2014,04,02,13,37,10.10
2014,04,02,13,38,10.20
2014,04,02,13,39,10.20
2014,04,02,13,40,10.30
2014,04,02,13,41,10.40
2014,04,02,13,42,10.40
2014,04,02,13,43,10.40
2014,04,02,13,44,10.30
2014,04,02,13,45,10.30
2014,04,02,13,46,10.30
2014,04,02,13,47,10.40
2014,04,02,13,48,10.30
2014,04,02,13,49,10.30
2014,04,02,13,50,10.20
2014,04,02,13,51,10.30
2014,04,02,13,52,10.30
2014,04,02,13,53,10.40
2014,04,02,13,54,10.40
2014,04,02,13,55,10.40
2014,04,02,13,56,10.50
2014,04,02,13,57,10.60
2014,04,02,13,58,10.60
2014,04,02,13,59,10.60
2014,04,02,14,00,10.50
2014,04,02,14,01,10.30
2014,04,02,14,02,10.20
2014,04,02,14,03,10.10
2014,04,02,14,04,10.10
2014,04,02,14,05,10.10
2014,04,02,14,06,10.10
2014,04,02,14,07,10.10
2014,04,02,14,08,10.20
2014,04,02,14,09,10.30
2014,04,02,14,10,10.30
2014,04,02,14,11,10.10
2014,04,02,14,12,10.10
2014,04,02,14,13,10.10
2014,04,02,14,14,10.10
2014,04,02,14,15,10.20
2014,04,02,14,16,10.10
2014,04,02,14,17,9.90
2014,04,02,14,18,9.80
2014,04,02,14,19,9.70
2014,04,02,14,20,9.70
2014,04,02,14,21,9.70
2014,04,02,14,22,9.70
2014,04,02,14,23,9.70
2014,04,02,14,24,9.70
2014,04,02,14,25,9.70
2014,04,02,14,26,9.70
2014,04,02,14,27,9.70
2014,04,02,14,28,9.70
2014,04,02,14,29,9.70
2014,04,02,14,30,9.80
2014,04,02,14,31,9.80
2014,04,02,14,32,9.80
2014,04,02,14,33,9.80
2014,04,02,14,34,9.70
2014,04,02,14,35,9.60
2014,04,02,14,36,9.60
2014,04,02,14,37,9.70
2014,04,02,14,38,9.80
2014,04,02,14,39,9.90
2014,04,02,14,40,9.90
2014,04,02,14,41,9.90
2014,04,02,14,42,9.90
2014,04,02,14,43,9.90
2014,04,02,14,44,9.90
2014,04,02,14,45,10.00
2014,04,02,14,46,10.10
2014,04,02,14,47,10.10
2014,04,02,14,48,10.10
2014,04,02,14,49,10.10
2014,04,02,14,50,10.20
2014,04,02,14,51,10.30
2014,04,02,14,52,10.30
2014,04,02,14,53,10.40
2014,04,02,14,54,10.40
2014,04,02,14,55,10.30
2014,04,02,14,56,10.40
2014,04,02,14,57,10.40
2014,04,02,14,58,10.40
2014,04,02,14,59,10.30
2014,04,02,15,00,10.10
2014,04,02,15,01,10.10
2014,04,02,15,02,10.10
2014,04,02,15,03,10.10
2014,04,02,15,04,10.30
2014,04,02,15,05,10.30
2014,04,02,15,06,10.30
2014,04,02,15,07,10.30
2014,04,02,15,08,10.40
2014,04,02,15,09,10.50
2014,04,02,15,10,10.70
2014,04,02,15,11,10.90
2014,04,02,15,12,10.80
2014,04,02,15,13,10.70
2014,04,02,15,14,10.70
2014,04,02,15,15,10.60
2014,04,02,15,16,10.60
2014,04,02,15,17,10.60
2014,04,02,15,18,10.60
2014,04,02,15,19,10.50
2014,04,02,15,20,10.60
2014,04,02,15,21,10.60
2014,04,02,15,22,10.60
2014,04,02,15,23,10.60
2014,04,02,15,24,10.60
2014,04,02,15,25,10.70
2014,04,02,15,26,10.70
2014,04,02,15,27,10.80
2014,04,02,15,28,10.80
2014,04,02,15,29,10.90
2014,04,02,15,30,10.90
2014,04,02,15,31,11.10
2014,04,02,15,32,11.20
2014,04,02,15,33,11.30
2014,04,02,15,34,11.40
2014,04,02,15,35,11.40
2014,04,02,15,36,11.40
2014,04,02,15,37,11.30
2014,04,02,15,38,11.30
2014,04,02,15,39,11.30
2014,04,02,15,40,11.30
2014,04,02,15,41,11.30
2014,04,02,15,42,11.30
2014,04,02,15,43,11.40
2014,04,02,15,44,11.30
2014,04,02,15,45,11.30
2014,04,02,15,46,11.30
2014,04,02,15,47,11.40
2014,04,02,15,48,11.40
2014,04,02,15,49,11.40
2014,04,02,15,50,11.40
2014,04,02,15,51,11.40
2014,04,02,15,52,11.20
2014,04,02,15,53,11.20
2014,04,02,15,54,11.10
2014,04,02,15,55,11.10
2014,04,02,15,56,11.10
2014,04,02,15,57,11.10
2014,04,02,15,58,11.00
2014,04,02,15,59,10.90
2014,04,02,16,00,10.90
2014,04,02,16,01,10.90
2014,04,02,16,02,10.90
2014,04,02,16,03,10.90
2014,04,02,16,04,11.10
2014,04,02,16,05,11.20
2014,04,02,16,06,11.20
2014,04,02,16,07,11.10
2014,04,02,16,08,11.10
2014,04,02,16,09,11.10
2014,04,02,16,10,11.10
2014,04,02,16,11,11.10
2014,04,02,16,12,11.10
2014,04,02,16,13,11.20
2014,04,02,16,14,11.30
2014,04,02,16,15,11.30
2014,04,02,16,16,11.20
2014,04,02,16,17,11.10
2014,04,02,16,18,11.10
2014,04,02,16,19,11.20
2014,04,02,16,20,11.10
2014,04,02,16,21,11.20
2014,04,02,16,22,11.20
2014,04,02,16,23,11.20
2014,04,02,16,24,11.20
2014,04,02,16,25,11.10
2014,04,02,16,26,11.20
2014,04,02,16,27,11.20
2014,04,02,16,28,11.20
2014,04,02,16,29,11.20
2014,04,02,16,30,11.30
2014,04,02,16,31,11.40
2014,04,02,16,32,11.40
2014,04,02,16,33,11.40
2014,04,02,16,34,11.50
2014,04,02,16,35,11.60
2014,04,02,16,36,11.60
2014,04,02,16,37,11.60
2014,04,02,16,38,11.60
2014,04,02,16,39,11.60
2014,04,02,16,40,11.60
2014,04,02,16,41,11.60
2014,04,02,16,42,11.70
2014,04,02,16,43,11.80
2014,04,02,16,44,11.90
2014,04,02,16,45,11.90
2014,04,02,16,46,11.80
2014,04,02,16,47,11.70
2014,04,02,16,48,11.60
2014,04,02,16,49,11.60
2014,04,02,16,50,11.50
2014,04,02,16,51,11.40
2014,04,02,16,52,11.50
2014,04,02,16,53,11.60
2014,04,02,16,54,11.80
2014,04,02,16,55,11.80
2014,04,02,16,56,11.80
2014,04,02,16,57,11.80
2014,04,02,16,58,11.90
2014,04,02,16,59,11.80
2014,04,02,17,00,11.80
2014,04,02,17,01,11.70
2014,04,02,17,02,11.60
2014,04,02,17,03,11.60
2014,04,02,17,04,11.60
2014,04,02,17,05,11.60
2014,04,02,17,06,11.70
2014,04,02,17,07,11.80
2014,04,02,17,08,11.80
2014,04,02,17,09,11.80
2014,04,02,17,10,11.90
2014,04,02,17,11,12.00
2014,04,02,17,12,12.10
2014,04,02,17,13,12.10
2014,04,02,17,14,12.10
2014,04,02,17,15,12.10
2014,04,02,17,16,12.10
2014,04,02,17,17,12.20
2014,04,02,17,18,12.20
2014,04,02,17,19,12.20
2014,04,02,17,20,12.20
2014,04,02,17,21,12.10
2014,04,02,17,22,12.10
2014,04,02,17,23,12.10
2014,04,02,17,24,12.20
2014,04,02,17,25,12.20
2014,04,02,17,26,12.20
2014,04,02,17,27,12.10
2014,04,02,17,28,12.00
2014,04,02,17,29,11.90
2014,04,02,17,30,11.80
2014,04,02,17,31,11.70
2014,04,02,17,32,11.80
2014,04,02,17,33,11.80
2014,04,02,17,34,11.90
2014,04,02,17,35,11.90
2014,04,02,17,36,11.90
2014,04,02,17,37,11.90
2014,04,02,17,38,11.90
2014,04,02,17,39,11.90
2014,04,02,17,40,11.90
2014,04,02,17,41,11.80
2014,04,02,17,42,11.80
2014,04,02,17,43,11.80
2014,04,02,17,44,11.70
2014,04,02,17,45,11.60
2014,04,02,17,46,11.60
2014,04,02,17,47,11.60
2014,04,02,17,48,11.60
2014,04,02,17,49,11.60